Time,TemperatureF,DewpointF,PressureIn,WindDirection,WindDirectionDegrees,WindSpeedMPH,WindSpeedGustMPH,Humidity,HourlyPrecipIn,Conditions,Clouds,dailyrainin,SoftwareType,DateUTC
2013-02-23 00:00:00,34.4,29.5,30.08,SE,141,0.0,0.0,82,0.00,,,0.00,Wunderground v.1.15,2013-02-23 07:00:00,
2013-02-23 00:05:00,34.1,29.5,30.08,SE,141,0.0,0.0,83,0.00,,,0.00,Wunderground v.1.15,2013-02-23 07:05:00,
2013-02-23 00:10:00,34.1,29.8,30.08,SE,141,0.0,0.0,84,0.00,,,0.00,Wunderground v.1.15,2013-02-23 07:10:00,
2013-02-23 00:20:00,33.7,29.7,30.08,South,188,0.0,0.0,85,0.00,,,0.00,Wunderground v.1.15,2013-02-23 07:20:00,
2013-02-23 00:25:00,33.6,29.9,30.08,South,188,0.0,0.0,86,0.00,,,0.00,Wunderground v.1.15,2013-02-23 07:25:00,
2013-02-23 00:30:00,33.5,29.8,30.08,South,188,0.0,0.0,86,0.00,,,0.00,Wunderground v.1.15,2013-02-23 07:30:00,
2013-02-23 00:40:00,33.7,30.2,30.08,South,188,0.0,0.0,87,0.00,,,0.00,Wunderground v.1.15,2013-02-23 07:40:00,
2013-02-23 00:45:00,33.6,29.9,30.08,South,188,0.0,0.0,86,0.00,,,0.00,Wunderground v.1.15,2013-02-23 07:45:00,
2013-02-23 00:50:00,33.3,29.6,30.08,South,188,0.0,0.0,86,0.00,,,0.00,Wunderground v.1.15,2013-02-23 07:50:00,
2013-02-23 00:55:00,33.4,29.9,30.08,NE,55,0.0,0.0,87,0.00,,,0.00,Wunderground v.1.15,2013-02-23 07:55:00,
2013-02-23 01:00:00,33.2,29.8,30.08,NE,55,0.0,0.0,87,0.00,,,0.00,Wunderground v.1.15,2013-02-23 08:00:00,
2013-02-23 01:10:00,32.4,29.0,30.08,NE,56,0.0,0.0,87,0.00,,,0.00,Wunderground v.1.15,2013-02-23 08:10:00,
2013-02-23 01:15:00,32.0,28.6,30.08,ENE,57,0.0,0.0,87,0.00,,,0.00,Wunderground v.1.15,2013-02-23 08:15:00,
2013-02-23 01:20:00,32.0,29.1,30.08,ENE,57,0.0,0.0,89,0.00,,,0.00,Wunderground v.1.15,2013-02-23 08:20:00,
2013-02-23 01:25:00,32.0,29.4,30.08,NE,56,0.0,0.0,90,0.00,,,0.00,Wunderground v.1.15,2013-02-23 08:25:00,
2013-02-23 01:30:00,31.7,29.1,30.08,NE,55,0.0,0.0,90,0.00,,,0.00,Wunderground v.1.15,2013-02-23 08:30:00,
2013-02-23 01:40:00,31.6,29.3,30.08,NE,44,0.0,0.0,91,0.00,,,0.00,Wunderground v.1.15,2013-02-23 08:40:00,
2013-02-23 01:45:00,31.4,28.8,30.08,NE,44,0.0,0.0,90,0.00,,,0.00,Wunderground v.1.15,2013-02-23 08:45:00,
2013-02-23 01:55:00,31.1,28.8,30.07,NE,44,0.0,0.0,91,0.00,,,0.00,Wunderground v.1.15,2013-02-23 08:55:00,
2013-02-23 02:00:00,31.0,28.7,30.08,NE,44,0.0,0.0,91,0.00,,,0.00,Wunderground v.1.15,2013-02-23 09:00:00,
2013-02-23 02:10:00,30.8,28.5,30.07,NE,44,0.0,0.0,91,0.00,,,0.00,Wunderground v.1.15,2013-02-23 09:10:00,
2013-02-23 02:15:00,30.8,28.8,30.07,NE,44,0.0,0.0,92,0.00,,,0.00,Wunderground v.1.15,2013-02-23 09:15:00,
2013-02-23 02:20:00,30.6,28.3,30.07,NE,44,0.0,0.0,91,0.00,,,0.00,Wunderground v.1.15,2013-02-23 09:20:00,
2013-02-23 02:30:00,31.3,29.2,30.07,NE,44,0.0,0.0,92,0.00,,,0.00,Wunderground v.1.15,2013-02-23 09:30:00,
2013-02-23 02:35:00,31.2,28.9,30.07,NE,44,0.0,0.0,91,0.00,,,0.00,Wunderground v.1.15,2013-02-23 09:35:00,
2013-02-23 02:40:00,30.9,28.6,30.07,NE,44,0.0,0.0,91,0.00,,,0.00,Wunderground v.1.15,2013-02-23 09:40:00,
2013-02-23 02:45:00,30.6,28.3,30.06,NE,44,0.0,0.0,91,0.00,,,0.00,Wunderground v.1.15,2013-02-23 09:45:00,
2013-02-23 02:50:00,30.3,28.0,30.06,NE,44,0.0,0.0,91,0.00,,,0.00,Wunderground v.1.15,2013-02-23 09:50:00,
2013-02-23 03:00:00,29.9,27.9,30.06,NE,44,0.0,0.0,92,0.00,,,0.00,Wunderground v.1.15,2013-02-23 10:00:00,
2013-02-23 03:05:00,29.7,27.7,30.06,NE,44,0.0,0.0,92,0.00,,,0.00,Wunderground v.1.15,2013-02-23 10:05:00,
2013-02-23 03:10:00,29.7,27.7,30.06,NE,44,0.0,0.0,92,0.00,,,0.00,Wunderground v.1.15,2013-02-23 10:10:00,
2013-02-23 03:15:00,29.6,27.6,30.06,NE,44,0.0,0.0,92,0.00,,,0.00,Wunderground v.1.15,2013-02-23 10:15:00,
2013-02-23 03:25:00,29.7,27.9,30.06,NE,44,0.0,0.0,93,0.00,,,0.00,Wunderground v.1.15,2013-02-23 10:25:00,
2013-02-23 03:30:00,29.6,27.8,30.06,NE,44,0.0,0.0,93,0.00,,,0.00,Wunderground v.1.15,2013-02-23 10:30:00,
2013-02-23 03:35:00,29.7,27.9,30.05,NE,44,0.0,0.0,93,0.00,,,0.00,Wunderground v.1.15,2013-02-23 10:35:00,
2013-02-23 03:45:00,29.6,27.6,30.05,NE,44,0.0,0.0,92,0.00,,,0.00,Wunderground v.1.15,2013-02-23 10:45:00,
2013-02-23 03:55:00,29.0,27.0,30.04,NE,44,0.0,0.0,92,0.00,,,0.00,Wunderground v.1.15,2013-02-23 10:55:00,
2013-02-23 04:00:00,28.9,27.1,30.04,NE,44,0.0,0.0,93,0.00,,,0.00,Wunderground v.1.15,2013-02-23 11:00:00,
2013-02-23 04:05:00,28.6,26.8,30.04,NE,44,0.0,0.0,93,0.00,,,0.00,Wunderground v.1.15,2013-02-23 11:05:00,
2013-02-23 04:10:00,28.5,26.7,30.04,NE,44,0.0,0.0,93,0.00,,,0.00,Wunderground v.1.15,2013-02-23 11:10:00,
2013-02-23 04:20:00,28.5,26.7,30.04,NE,44,0.0,0.0,93,0.00,,,0.00,Wunderground v.1.15,2013-02-23 11:20:00,
2013-02-23 04:25:00,28.2,26.4,30.04,NE,44,0.0,0.0,93,0.00,,,0.00,Wunderground v.1.15,2013-02-23 11:25:00,
2013-02-23 04:30:00,28.0,26.2,30.04,NE,44,0.0,0.0,93,0.00,,,0.00,Wunderground v.1.15,2013-02-23 11:30:00,
2013-02-23 04:35:00,27.8,26.0,30.04,NE,44,0.0,0.0,93,0.00,,,0.00,Wunderground v.1.15,2013-02-23 11:35:00,
2013-02-23 04:45:00,27.7,26.2,30.04,NE,44,0.0,0.0,94,0.00,,,0.00,Wunderground v.1.15,2013-02-23 11:45:00,
2013-02-23 04:55:00,27.9,26.4,30.04,NE,44,0.0,0.0,94,0.00,,,0.00,Wunderground v.1.15,2013-02-23 11:55:00,
2013-02-23 05:00:00,27.7,26.2,30.04,NE,44,0.0,0.0,94,0.00,,,0.00,Wunderground v.1.15,2013-02-23 12:00:00,
2013-02-23 05:10:00,27.9,26.7,30.04,NE,44,0.0,0.0,95,0.00,,,0.00,Wunderground v.1.15,2013-02-23 12:10:00,
2013-02-23 05:15:00,28.1,26.9,30.04,NE,44,0.0,0.0,95,0.00,,,0.00,Wunderground v.1.15,2013-02-23 12:15:00,
2013-02-23 05:20:00,28.2,27.0,30.04,NE,44,0.0,0.0,95,0.00,,,0.00,Wunderground v.1.15,2013-02-23 12:20:00,
2013-02-23 05:25:00,28.1,26.6,30.04,NE,44,0.0,0.0,94,0.00,,,0.00,Wunderground v.1.15,2013-02-23 12:25:00,
2013-02-23 05:30:00,28.0,26.5,30.04,NE,44,0.0,0.0,94,0.00,,,0.00,Wunderground v.1.15,2013-02-23 12:30:00,
2013-02-23 05:40:00,28.1,26.6,30.03,NE,44,0.0,0.0,94,0.00,,,0.00,Wunderground v.1.15,2013-02-23 12:40:00,
2013-02-23 05:45:00,28.3,26.8,30.03,NE,44,0.0,0.0,94,0.00,,,0.00,Wunderground v.1.15,2013-02-23 12:45:00,
2013-02-23 05:50:00,28.2,26.7,30.03,NE,44,0.0,0.0,94,0.00,,,0.00,Wunderground v.1.15,2013-02-23 12:50:00,
2013-02-23 05:55:00,28.1,26.6,30.03,NE,44,0.0,0.0,94,0.00,,,0.00,Wunderground v.1.15,2013-02-23 12:55:00,
2013-02-23 06:05:00,27.5,26.0,30.03,NE,44,0.0,0.0,94,0.00,,,0.00,Wunderground v.1.15,2013-02-23 13:05:00,
2013-02-23 06:10:00,27.5,26.0,30.03,NE,44,0.0,0.0,94,0.00,,,0.00,Wunderground v.1.15,2013-02-23 13:10:00,
2013-02-23 06:15:00,27.5,26.0,30.03,NE,44,0.0,0.0,94,0.00,,,0.00,Wunderground v.1.15,2013-02-23 13:15:00,
2013-02-23 06:20:00,27.5,26.0,30.04,NE,44,0.0,0.0,94,0.00,,,0.00,Wunderground v.1.15,2013-02-23 13:20:00,
2013-02-23 06:30:00,27.5,26.0,30.04,NE,44,0.0,0.0,94,0.00,,,0.00,Wunderground v.1.15,2013-02-23 13:30:00,
2013-02-23 06:35:00,27.3,25.8,30.04,NE,44,0.0,0.0,94,0.00,,,0.00,Wunderground v.1.15,2013-02-23 13:35:00,
2013-02-23 06:40:00,26.9,25.4,30.04,NE,44,0.0,0.0,94,0.00,,,0.00,Wunderground v.1.15,2013-02-23 13:40:00,
2013-02-23 06:45:00,26.9,25.7,30.04,NE,44,0.0,0.0,95,0.00,,,0.00,Wunderground v.1.15,2013-02-23 13:45:00,
2013-02-23 06:55:00,27.0,25.8,30.04,East,82,0.0,0.0,95,0.00,,,0.00,Wunderground v.1.15,2013-02-23 13:55:00,
2013-02-23 07:00:00,27.1,25.9,30.04,East,82,0.0,0.0,95,0.00,,,0.00,Wunderground v.1.15,2013-02-23 14:00:00,
2013-02-23 07:05:00,27.3,26.1,30.04,East,82,0.0,0.0,95,0.00,,,0.00,Wunderground v.1.15,2013-02-23 14:05:00,
2013-02-23 07:10:00,27.3,26.1,30.04,East,82,0.0,0.0,95,0.00,,,0.00,Wunderground v.1.15,2013-02-23 14:10:00,
2013-02-23 07:15:00,27.3,26.1,30.04,East,80,0.0,0.0,95,0.00,,,0.00,Wunderground v.1.15,2013-02-23 14:15:00,
2013-02-23 07:25:00,28.1,26.9,30.04,ENE,64,0.0,0.0,95,0.00,,,0.00,Wunderground v.1.15,2013-02-23 14:25:00,
2013-02-23 07:30:00,28.9,27.6,30.04,NE,46,0.0,0.0,95,0.00,,,0.00,Wunderground v.1.15,2013-02-23 14:30:00,
2013-02-23 07:35:00,29.6,28.3,30.04,NE,49,0.0,0.0,95,0.00,,,0.00,Wunderground v.1.15,2013-02-23 14:35:00,
2013-02-23 07:40:00,30.6,29.1,30.04,NE,46,0.0,0.0,94,0.00,,,0.00,Wunderground v.1.15,2013-02-23 14:40:00,
2013-02-23 07:50:00,32.7,30.1,30.04,NE,46,0.0,0.0,90,0.00,,,0.00,Wunderground v.1.15,2013-02-23 14:50:00,
2013-02-23 07:55:00,33.7,30.2,30.04,NE,55,0.0,0.0,87,0.00,,,0.00,Wunderground v.1.15,2013-02-23 14:55:00,
2013-02-23 08:00:00,34.7,30.9,30.04,NE,56,0.0,0.0,86,0.00,,,0.00,Wunderground v.1.15,2013-02-23 15:00:00,
2013-02-23 08:05:00,35.8,31.4,30.04,ESE,102,0.0,0.0,84,0.00,,,0.00,Wunderground v.1.15,2013-02-23 15:05:00,
2013-02-23 08:10:00,37.2,32.2,30.04,ESE,102,0.0,0.0,82,0.00,,,0.00,Wunderground v.1.15,2013-02-23 15:10:00,
2013-02-23 08:20:00,38.3,32.0,30.05,SW,222,0.0,0.0,78,0.00,,,0.00,Wunderground v.1.15,2013-02-23 15:20:00,
2013-02-23 08:25:00,38.7,32.1,30.05,SSW,211,0.0,0.0,77,0.00,,,0.00,Wunderground v.1.15,2013-02-23 15:25:00,
2013-02-23 08:30:00,39.2,31.9,30.05,SSW,211,0.0,0.0,75,0.00,,,0.00,Wunderground v.1.15,2013-02-23 15:30:00,
2013-02-23 08:35:00,39.6,32.0,30.05,SSW,211,0.0,0.0,74,0.00,,,0.00,Wunderground v.1.15,2013-02-23 15:35:00,
2013-02-23 08:45:00,41.2,30.7,30.05,WNW,295,0.0,1.0,66,0.00,,,0.00,Wunderground v.1.15,2013-02-23 15:45:00,
2013-02-23 08:50:00,41.5,32.1,30.05,WNW,295,0.0,0.0,69,0.00,,,0.00,Wunderground v.1.15,2013-02-23 15:50:00,
2013-02-23 08:55:00,43.0,33.2,30.05,WNW,295,0.0,0.0,68,0.00,,,0.00,Wunderground v.1.15,2013-02-23 15:55:00,
2013-02-23 09:05:00,44.3,31.7,30.04,East,82,0.0,0.0,61,0.00,,,0.00,Wunderground v.1.15,2013-02-23 16:05:00,
2013-02-23 09:10:00,44.8,30.9,30.04,NE,47,0.0,0.0,58,0.00,,,0.00,Wunderground v.1.15,2013-02-23 16:10:00,
2013-02-23 09:15:00,45.2,30.4,30.03,NE,34,0.0,0.0,56,0.00,,,0.00,Wunderground v.1.15,2013-02-23 16:15:00,
2013-02-23 09:20:00,45.8,31.0,30.03,NE,53,0.0,0.0,56,0.00,,,0.00,Wunderground v.1.15,2013-02-23 16:20:00,
2013-02-23 09:30:00,47.1,29.9,30.02,ESE,111,0.0,1.0,51,0.00,,,0.00,Wunderground v.1.15,2013-02-23 16:30:00,
2013-02-23 09:35:00,47.6,30.3,30.02,SSW,207,0.0,1.0,51,0.00,,,0.00,Wunderground v.1.15,2013-02-23 16:35:00,
2013-02-23 09:45:00,48.5,30.7,30.02,SW,219,1.0,2.0,50,0.00,,,0.00,Wunderground v.1.15,2013-02-23 16:45:00,
2013-02-23 09:50:00,49.2,30.3,30.02,SSW,212,1.0,1.0,48,0.00,,,0.00,Wunderground v.1.15,2013-02-23 16:50:00,
2013-02-23 10:00:00,49.7,29.7,30.02,South,184,1.0,3.0,46,0.00,,,0.00,Wunderground v.1.15,2013-02-23 17:00:00,
2013-02-23 10:05:00,50.3,30.3,30.01,West,275,2.0,3.0,46,0.00,,,0.00,Wunderground v.1.15,2013-02-23 17:05:00,
2013-02-23 10:10:00,50.4,29.3,30.01,West,278,1.0,2.0,44,0.00,,,0.00,Wunderground v.1.15,2013-02-23 17:10:00,
2013-02-23 10:15:00,50.9,29.7,30.01,WNW,303,2.0,2.0,44,0.00,,,0.00,Wunderground v.1.15,2013-02-23 17:15:00,
2013-02-23 10:20:00,51.3,29.0,30.01,SW,225,2.0,2.0,42,0.00,,,0.00,Wunderground v.1.15,2013-02-23 17:20:00,
2013-02-23 10:30:00,52.0,28.4,30.01,NE,45,1.0,1.0,40,0.00,,,0.00,Wunderground v.1.15,2013-02-23 17:30:00,
2013-02-23 10:35:00,52.7,29.0,30.01,SW,220,1.0,3.0,40,0.00,,,0.00,Wunderground v.1.15,2013-02-23 17:35:00,
2013-02-23 10:40:00,52.9,28.6,30.01,SSW,210,2.0,2.0,39,0.00,,,0.00,Wunderground v.1.15,2013-02-23 17:40:00,
2013-02-23 10:50:00,52.8,27.9,30.01,WNW,295,2.0,3.0,38,0.00,,,0.00,Wunderground v.1.15,2013-02-23 17:50:00,
2013-02-23 11:00:00,53.4,28.4,30.00,SW,219,2.0,2.0,38,0.00,,,0.00,Wunderground v.1.15,2013-02-23 18:00:00,
2013-02-23 11:05:00,54.4,27.3,30.00,SSW,200,1.0,2.0,35,0.00,,,0.00,Wunderground v.1.15,2013-02-23 18:05:00,
2013-02-23 11:10:00,55.3,26.7,30.00,SSE,162,1.0,1.0,33,0.00,,,0.00,Wunderground v.1.15,2013-02-23 18:10:00,
2013-02-23 11:20:00,55.7,27.7,29.99,WSW,249,1.0,3.0,34,0.00,,,0.00,Wunderground v.1.15,2013-02-23 18:20:00,
2013-02-23 11:25:00,55.9,27.2,29.99,SSW,193,2.0,3.0,33,0.00,,,0.00,Wunderground v.1.15,2013-02-23 18:25:00,
2013-02-23 11:30:00,56.2,27.4,29.98,East,80,2.0,2.0,33,0.00,,,0.00,Wunderground v.1.15,2013-02-23 18:30:00,
2013-02-23 11:35:00,56.2,28.2,29.98,NW,312,1.0,2.0,34,0.00,,,0.00,Wunderground v.1.15,2013-02-23 18:35:00,
2013-02-23 11:40:00,56.8,26.5,29.97,NNE,25,1.0,1.0,31,0.00,,,0.00,Wunderground v.1.15,2013-02-23 18:40:00,
2013-02-23 11:50:00,57.6,27.2,29.97,WNW,283,1.0,2.0,31,0.00,,,0.00,Wunderground v.1.15,2013-02-23 18:50:00,
2013-02-23 11:55:00,58.0,27.5,29.96,WNW,291,1.0,2.0,31,0.00,,,0.00,Wunderground v.1.15,2013-02-23 18:55:00,
2013-02-23 12:05:00,60.1,26.9,29.95,SE,143,0.0,2.0,28,0.00,,,0.00,Wunderground v.1.15,2013-02-23 19:05:00,
2013-02-23 12:15:00,60.7,26.5,29.94,East,81,1.0,2.0,27,0.00,,,0.00,Wunderground v.1.15,2013-02-23 19:15:00,
2013-02-23 12:20:00,60.5,25.4,29.94,SE,134,1.0,2.0,26,0.00,,,0.00,Wunderground v.1.15,2013-02-23 19:20:00,
2013-02-23 12:25:00,60.8,24.7,29.94,East,85,2.0,3.0,25,0.00,,,0.00,Wunderground v.1.15,2013-02-23 19:25:00,
2013-02-23 12:30:00,59.9,24.9,29.93,SE,141,2.0,2.0,26,0.00,,,0.00,Wunderground v.1.15,2013-02-23 19:30:00,
2013-02-23 12:40:00,60.7,23.7,29.93,SW,221,2.0,3.0,24,0.00,,,0.00,Wunderground v.1.15,2013-02-23 19:40:00,
2013-02-23 12:45:00,61.4,23.2,29.92,WNW,283,1.0,3.0,23,0.00,,,0.00,Wunderground v.1.15,2013-02-23 19:45:00,
2013-02-23 12:50:00,61.8,22.5,29.92,SE,131,1.0,1.0,22,0.00,,,0.00,Wunderground v.1.15,2013-02-23 19:50:00,
2013-02-23 12:55:00,61.7,23.5,29.91,SSE,162,2.0,4.0,23,0.00,,,0.00,Wunderground v.1.15,2013-02-23 19:55:00,
2013-02-23 13:05:00,62.2,22.8,29.91,SSW,193,2.0,3.0,22,0.00,,,0.00,Wunderground v.1.15,2013-02-23 20:05:00,
2013-02-23 13:10:00,62.4,21.9,29.90,SSW,200,3.0,3.0,21,0.00,,,0.00,Wunderground v.1.15,2013-02-23 20:10:00,
2013-02-23 13:20:00,62.1,19.3,29.89,SSW,195,2.0,2.0,19,0.00,,,0.00,Wunderground v.1.15,2013-02-23 20:20:00,
2013-02-23 13:25:00,61.9,19.1,29.89,WNW,292,2.0,2.0,19,0.00,,,0.00,Wunderground v.1.15,2013-02-23 20:25:00,
2013-02-23 13:30:00,62.5,23.1,29.88,West,274,2.0,3.0,22,0.00,,,0.00,Wunderground v.1.15,2013-02-23 20:30:00,
2013-02-23 13:35:00,62.8,19.9,29.88,West,266,3.0,8.0,19,0.00,,,0.00,Wunderground v.1.15,2013-02-23 20:35:00,
2013-02-23 13:45:00,62.3,19.5,29.87,SW,226,4.0,4.0,19,0.00,,,0.00,Wunderground v.1.15,2013-02-23 20:45:00,
2013-02-23 13:50:00,62.5,18.4,29.86,NW,310,3.0,3.0,18,0.00,,,0.00,Wunderground v.1.15,2013-02-23 20:50:00,
2013-02-23 13:55:00,62.2,21.7,29.86,NNW,347,3.0,3.0,21,0.00,,,0.00,Wunderground v.1.15,2013-02-23 20:55:00,
2013-02-23 14:00:00,62.9,21.2,29.86,WSW,251,2.0,5.0,20,0.00,,,0.00,Wunderground v.1.15,2013-02-23 21:00:00,
2013-02-23 14:10:00,62.9,20.0,29.86,NW,307,2.0,2.0,19,0.00,,,0.00,Wunderground v.1.15,2013-02-23 21:10:00,
2013-02-23 14:15:00,63.5,20.5,29.85,SW,225,2.0,4.0,19,0.00,,,0.00,Wunderground v.1.15,2013-02-23 21:15:00,
2013-02-23 14:20:00,63.5,20.5,29.85,West,276,3.0,6.0,19,0.00,,,0.00,Wunderground v.1.15,2013-02-23 21:20:00,
2013-02-23 14:25:00,63.2,21.4,29.85,NW,316,4.0,6.0,20,0.00,,,0.00,Wunderground v.1.15,2013-02-23 21:25:00,
2013-02-23 14:30:00,63.0,21.2,29.84,NE,44,3.0,3.0,20,0.00,,,0.00,Wunderground v.1.15,2013-02-23 21:30:00,
2013-02-23 14:40:00,63.5,21.7,29.84,West,266,3.0,3.0,20,0.00,,,0.00,Wunderground v.1.15,2013-02-23 21:40:00,
2013-02-23 14:45:00,63.7,20.6,29.84,WNW,283,4.0,4.0,19,0.00,,,0.00,Wunderground v.1.15,2013-02-23 21:45:00,
2013-02-23 14:50:00,64.0,22.1,29.83,SW,216,3.0,3.0,20,0.00,,,0.00,Wunderground v.1.15,2013-02-23 21:50:00,
2013-02-23 14:55:00,64.2,19.8,29.83,West,274,3.0,4.0,18,0.00,,,0.00,Wunderground v.1.15,2013-02-23 21:55:00,
2013-02-23 15:05:00,64.3,19.8,29.83,WSW,244,3.0,3.0,18,0.00,,,0.00,Wunderground v.1.15,2013-02-23 22:05:00,
2013-02-23 15:10:00,64.4,21.2,29.83,WSW,252,3.0,6.0,19,0.00,,,0.00,Wunderground v.1.15,2013-02-23 22:10:00,
2013-02-23 15:15:00,63.9,19.5,29.82,NW,308,4.0,6.0,18,0.00,,,0.00,Wunderground v.1.15,2013-02-23 22:15:00,
2013-02-23 15:20:00,64.7,21.4,29.82,SW,236,4.0,4.0,19,0.00,,,0.00,Wunderground v.1.15,2013-02-23 22:20:00,
2013-02-23 15:30:00,64.1,19.7,29.82,WSW,251,4.0,4.0,18,0.00,,,0.00,Wunderground v.1.15,2013-02-23 22:30:00,
2013-02-23 15:35:00,64.0,19.6,29.82,West,271,5.0,5.0,18,0.00,,,0.00,Wunderground v.1.15,2013-02-23 22:35:00,
2013-02-23 15:45:00,64.2,19.8,29.81,West,278,4.0,6.0,18,0.00,,,0.00,Wunderground v.1.15,2013-02-23 22:45:00,
2013-02-23 15:50:00,63.7,20.6,29.81,NW,316,6.0,6.0,19,0.00,,,0.00,Wunderground v.1.15,2013-02-23 22:50:00,
2013-02-23 16:00:00,63.6,20.5,29.81,WNW,291,5.0,5.0,19,0.00,,,0.00,Wunderground v.1.15,2013-02-23 23:00:00,
2013-02-23 16:05:00,63.7,20.6,29.81,WNW,295,6.0,6.0,19,0.00,,,0.00,Wunderground v.1.15,2013-02-23 23:05:00,
2013-02-23 16:10:00,63.6,20.5,29.81,West,278,6.0,6.0,19,0.00,,,0.00,Wunderground v.1.15,2013-02-23 23:10:00,
2013-02-23 16:15:00,63.6,21.7,29.81,WNW,295,5.0,6.0,20,0.00,,,0.00,Wunderground v.1.15,2013-02-23 23:15:00,
2013-02-23 16:20:00,63.8,23.1,29.80,SW,214,4.0,4.0,21,0.00,,,0.00,Wunderground v.1.15,2013-02-23 23:20:00,
2013-02-23 16:30:00,63.7,24.1,29.80,WNW,302,5.0,5.0,22,0.00,,,0.00,Wunderground v.1.15,2013-02-23 23:30:00,
2013-02-23 16:35:00,63.5,25.0,29.80,WNW,298,5.0,5.0,23,0.00,,,0.00,Wunderground v.1.15,2013-02-23 23:35:00,
2013-02-23 16:40:00,63.8,24.2,29.79,WNW,283,4.0,6.0,22,0.00,,,0.00,Wunderground v.1.15,2013-02-23 23:40:00,
2013-02-23 16:50:00,63.4,24.9,29.79,WNW,287,3.0,4.0,23,0.00,,,0.00,Wunderground v.1.15,2013-02-23 23:50:00,
2013-02-23 16:55:00,63.3,24.8,29.79,WSW,252,2.0,4.0,23,0.00,,,0.00,Wunderground v.1.15,2013-02-23 23:55:00,
2013-02-23 17:00:00,63.5,25.0,29.78,WSW,243,2.0,2.0,23,0.00,,,0.00,Wunderground v.1.15,2013-02-24 00:00:00,
2013-02-23 17:05:00,63.5,25.0,29.79,NW,309,2.0,3.0,23,0.00,,,0.00,Wunderground v.1.15,2013-02-24 00:05:00,
2013-02-23 17:10:00,63.4,25.9,29.79,WNW,285,3.0,3.0,24,0.00,,,0.00,Wunderground v.1.15,2013-02-24 00:10:00,
2013-02-23 17:20:00,63.2,25.8,29.78,NW,318,3.0,3.0,24,0.00,,,0.00,Wunderground v.1.15,2013-02-24 00:20:00,
2013-02-23 17:25:00,63.2,25.8,29.78,West,274,2.0,3.0,24,0.00,,,0.00,Wunderground v.1.15,2013-02-24 00:25:00,
2013-02-23 17:30:00,63.4,25.9,29.78,NW,319,2.0,2.0,24,0.00,,,0.00,Wunderground v.1.15,2013-02-24 00:30:00,
2013-02-23 17:35:00,63.2,25.8,29.77,West,278,2.0,2.0,24,0.00,,,0.00,Wunderground v.1.15,2013-02-24 00:35:00,
2013-02-23 17:40:00,62.8,25.4,29.77,West,281,2.0,2.0,24,0.00,,,0.00,Wunderground v.1.15,2013-02-24 00:40:00,
2013-02-23 17:50:00,62.1,24.8,29.77,WNW,297,3.0,3.0,24,0.00,,,0.00,Wunderground v.1.15,2013-02-24 00:50:00,
2013-02-23 17:55:00,61.8,25.6,29.77,WNW,285,3.0,3.0,25,0.00,,,0.00,Wunderground v.1.15,2013-02-24 00:55:00,
2013-02-23 18:05:00,61.0,24.9,29.77,WSW,253,2.0,2.0,25,0.00,,,0.00,Wunderground v.1.15,2013-02-24 01:05:00,
2013-02-23 18:15:00,59.7,25.6,29.77,SW,228,2.0,2.0,27,0.00,,,0.00,Wunderground v.1.15,2013-02-24 01:15:00,
2013-02-23 18:20:00,59.0,26.8,29.77,West,268,2.0,2.0,29,0.00,,,0.00,Wunderground v.1.15,2013-02-24 01:20:00,
2013-02-23 18:25:00,58.2,26.9,29.77,WSW,255,1.0,2.0,30,0.00,,,0.00,Wunderground v.1.15,2013-02-24 01:25:00,
2013-02-23 18:30:00,57.5,26.3,29.77,SW,231,0.0,0.0,30,0.00,,,0.00,Wunderground v.1.15,2013-02-24 01:30:00,
2013-02-23 18:40:00,56.5,27.0,29.77,SSW,198,0.0,0.0,32,0.00,,,0.00,Wunderground v.1.15,2013-02-24 01:40:00,
2013-02-23 18:45:00,55.7,27.7,29.77,SSW,197,0.0,0.0,34,0.00,,,0.00,Wunderground v.1.15,2013-02-24 01:45:00,
2013-02-23 18:50:00,54.8,28.3,29.77,SSW,197,0.0,0.0,36,0.00,,,0.00,Wunderground v.1.15,2013-02-24 01:50:00,
2013-02-23 18:55:00,53.8,27.4,29.77,SSW,197,0.0,0.0,36,0.00,,,0.00,Wunderground v.1.15,2013-02-24 01:55:00,
2013-02-23 19:05:00,52.4,29.4,29.77,SSW,197,0.0,0.0,41,0.00,,,0.00,Wunderground v.1.15,2013-02-24 02:05:00,
2013-02-23 19:10:00,51.8,30.6,29.77,SSW,197,0.0,0.0,44,0.00,,,0.00,Wunderground v.1.15,2013-02-24 02:10:00,
2013-02-23 19:15:00,51.3,29.5,29.77,SSW,197,0.0,0.0,43,0.00,,,0.00,Wunderground v.1.15,2013-02-24 02:15:00,
2013-02-23 19:20:00,50.7,30.7,29.77,SSW,197,0.0,0.0,46,0.00,,,0.00,Wunderground v.1.15,2013-02-24 02:20:00,
2013-02-23 19:30:00,49.1,30.2,29.77,SSW,197,0.0,0.0,48,0.00,,,0.00,Wunderground v.1.15,2013-02-24 02:30:00,
2013-02-23 19:35:00,48.5,30.2,29.77,SSW,197,0.0,0.0,49,0.00,,,0.00,Wunderground v.1.15,2013-02-24 02:35:00,
2013-02-23 19:40:00,48.2,30.4,29.77,SSW,197,0.0,0.0,50,0.00,,,0.00,Wunderground v.1.15,2013-02-24 02:40:00,
2013-02-23 19:45:00,48.3,30.5,29.77,SSW,197,0.0,0.0,50,0.00,,,0.00,Wunderground v.1.15,2013-02-24 02:45:00,
2013-02-23 19:50:00,48.0,31.2,29.77,SSW,197,0.0,0.0,52,0.00,,,0.00,Wunderground v.1.15,2013-02-24 02:50:00,
2013-02-23 20:00:00,47.4,32.5,29.77,SSW,197,0.0,0.0,56,0.00,,,0.00,Wunderground v.1.15,2013-02-24 03:00:00,
2013-02-23 20:10:00,47.5,31.7,29.77,NE,44,0.0,0.0,54,0.00,,,0.00,Wunderground v.1.15,2013-02-24 03:10:00,
2013-02-23 20:15:00,47.3,32.4,29.76,NE,44,0.0,0.0,56,0.00,,,0.00,Wunderground v.1.15,2013-02-24 03:15:00,
2013-02-23 20:20:00,47.0,32.5,29.77,NE,44,0.0,0.0,57,0.00,,,0.00,Wunderground v.1.15,2013-02-24 03:20:00,
2013-02-23 20:30:00,45.8,32.7,29.77,NE,44,0.0,0.0,60,0.00,,,0.00,Wunderground v.1.15,2013-02-24 03:30:00,
2013-02-23 20:35:00,45.4,31.9,29.77,NE,44,0.0,0.0,59,0.00,,,0.00,Wunderground v.1.15,2013-02-24 03:35:00,
2013-02-23 20:40:00,45.4,32.7,29.77,NE,44,0.0,0.0,61,0.00,,,0.00,Wunderground v.1.15,2013-02-24 03:40:00,
2013-02-23 20:45:00,45.3,33.0,29.77,NE,44,0.0,0.0,62,0.00,,,0.00,Wunderground v.1.15,2013-02-24 03:45:00,
2013-02-23 20:55:00,44.5,33.8,29.77,NE,44,0.0,0.0,66,0.00,,,0.00,Wunderground v.1.15,2013-02-24 03:55:00,
2013-02-23 21:00:00,44.3,32.9,29.77,NE,44,0.0,0.0,64,0.00,,,0.00,Wunderground v.1.15,2013-02-24 04:00:00,
2013-02-23 21:05:00,44.3,32.9,29.77,NE,44,0.0,0.0,64,0.00,,,0.00,Wunderground v.1.15,2013-02-24 04:05:00,
2013-02-23 21:10:00,44.7,33.3,29.77,ENE,68,0.0,0.0,64,0.00,,,0.00,Wunderground v.1.15,2013-02-24 04:10:00,
2013-02-23 21:15:00,44.5,33.1,29.77,ENE,68,0.0,0.0,64,0.00,,,0.00,Wunderground v.1.15,2013-02-24 04:15:00,
2013-02-23 21:25:00,43.5,34.0,29.78,ENE,68,0.0,0.0,69,0.00,,,0.00,Wunderground v.1.15,2013-02-24 04:25:00,
2013-02-23 21:30:00,42.8,33.7,29.78,ENE,68,0.0,0.0,70,0.00,,,0.00,Wunderground v.1.15,2013-02-24 04:30:00,
2013-02-23 21:40:00,41.7,33.0,29.78,ENE,68,0.0,0.0,71,0.00,,,0.00,Wunderground v.1.15,2013-02-24 04:40:00,
2013-02-23 21:45:00,41.6,33.6,29.79,ENE,68,0.0,0.0,73,0.00,,,0.00,Wunderground v.1.15,2013-02-24 04:45:00,
2013-02-23 21:50:00,41.7,33.7,29.78,SE,135,0.0,0.0,73,0.00,,,0.00,Wunderground v.1.15,2013-02-24 04:50:00,
2013-02-23 21:55:00,41.7,33.7,29.78,SE,134,0.0,0.0,73,0.00,,,0.00,Wunderground v.1.15,2013-02-24 04:55:00,
2013-02-23 22:00:00,41.5,33.8,29.78,SE,134,0.0,0.0,74,0.00,,,0.00,Wunderground v.1.15,2013-02-24 05:00:00,
2013-02-23 22:05:00,41.1,33.4,29.78,SE,134,0.0,0.0,74,0.00,,,0.00,Wunderground v.1.15,2013-02-24 05:05:00,
2013-02-23 22:10:00,40.8,33.2,29.78,SE,134,0.0,0.0,74,0.00,,,0.00,Wunderground v.1.15,2013-02-24 05:10:00,
2013-02-23 22:15:00,40.6,33.3,29.78,SE,132,0.0,0.0,75,0.00,,,0.00,Wunderground v.1.15,2013-02-24 05:15:00,
2013-02-23 22:20:00,40.4,33.4,29.79,ENE,72,0.0,0.0,76,0.00,,,0.00,Wunderground v.1.15,2013-02-24 05:20:00,
2013-02-23 22:25:00,40.5,33.2,29.79,ENE,68,0.0,0.0,75,0.00,,,0.00,Wunderground v.1.15,2013-02-24 05:25:00,
2013-02-23 22:30:00,41.0,33.0,29.79,NE,56,0.0,0.0,73,0.00,,,0.00,Wunderground v.1.15,2013-02-24 05:30:00,
2013-02-23 22:35:00,41.1,33.1,29.79,NE,56,0.0,0.0,73,0.00,,,0.00,Wunderground v.1.15,2013-02-24 05:35:00,
2013-02-23 22:40:00,40.8,33.2,29.79,NE,56,0.0,0.0,74,0.00,,,0.00,Wunderground v.1.15,2013-02-24 05:40:00,
2013-02-23 22:45:00,40.3,32.7,29.79,NE,55,0.0,0.0,74,0.00,,,0.00,Wunderground v.1.15,2013-02-24 05:45:00,
2013-02-23 22:55:00,39.3,32.7,29.79,NE,55,0.0,0.0,77,0.00,,,0.00,Wunderground v.1.15,2013-02-24 05:55:00,
2013-02-23 23:05:00,38.9,32.6,29.79,NE,55,0.0,0.0,78,0.00,,,0.00,Wunderground v.1.15,2013-02-24 06:05:00,
2013-02-23 23:10:00,38.7,32.7,29.79,NE,56,0.0,0.0,79,0.00,,,0.00,Wunderground v.1.15,2013-02-24 06:10:00,
2013-02-23 23:15:00,38.9,32.9,29.79,NE,56,0.0,0.0,79,0.00,,,0.00,Wunderground v.1.15,2013-02-24 06:15:00,
2013-02-23 23:25:00,39.2,32.6,29.78,NE,56,0.0,0.0,77,0.00,,,0.00,Wunderground v.1.15,2013-02-24 06:25:00,
2013-02-23 23:30:00,38.8,32.5,29.78,NE,56,0.0,0.0,78,0.00,,,0.00,Wunderground v.1.15,2013-02-24 06:30:00,
2013-02-23 23:35:00,38.5,32.6,29.78,NE,56,0.0,0.0,79,0.00,,,0.00,Wunderground v.1.15,2013-02-24 06:35:00,
2013-02-23 23:40:00,38.3,32.7,29.78,NE,56,0.0,0.0,80,0.00,,,0.00,Wunderground v.1.15,2013-02-24 06:40:00,
2013-02-23 23:45:00,38.0,32.4,29.78,NE,55,0.0,0.0,80,0.00,,,0.00,Wunderground v.1.15,2013-02-24 06:45:00,
2013-02-23 23:55:00,37.2,31.9,29.78,NE,55,0.0,0.0,81,0.00,,,0.00,Wunderground v.1.15,2013-02-24 06:55:00,